• In Lithuania
  • List of Countries
  • For 7 days
  • Water Temperature
  • Satellite Maps
  • Weather Map
  • Weather Widgets
  • user-avatar
    Login

    Hourly Weather Lleida

    Today, 15 July, Sunday

    Time Temperature Precipitation Wind Pressure Humidity
    00:00 +26°C° 0 mm 2 mps 747 mmHg 51%
    01:00 +26°C° 0 mm 2 mps 747 mmHg 53%
    02:00 +25°C° 0 mm 2 mps 746 mmHg 56%
    03:00 +25°C° 0 mm 2 mps 746 mmHg 58%
    04:00 +25°C° 0 mm 2 mps 746 mmHg 58%
    05:00 +25°C° 0 mm 1 mps 746 mmHg 59%
    06:00 +26°C° 0 mm 1 mps 746 mmHg 59%
    07:00 +28°C° 0 mm 1 mps 746 mmHg 51%
    08:00 +30°C° 0 mm 1 mps 746 mmHg 43%
    09:00 +32°C° 0 mm 1 mps 746 mmHg 35%
    10:00 +35°C° 0 mm 2 mps 746 mmHg 31%
    11:00 +36°C° 0 mm 2 mps 746 mmHg 26%
    12:00 +37°C° 0 mm 2 mps 746 mmHg 25%
    13:00 +37°C° 0 mm 3 mps 746 mmHg 24%
    14:00 +38°C° 0 mm 3 mps 745 mmHg 23%
    15:00 +38°C° 0 mm 3 mps 745 mmHg 22%
    16:00 +37°C° 0 mm 3 mps 745 mmHg 25%
    17:00 +37°C° 0 mm 4 mps 744 mmHg 29%
    18:00 +36°C° 0 mm 4 mps 744 mmHg 33%
    19:00 +34°C° 0 mm 3 mps 744 mmHg 41%
    20:00 +30°C° 0 mm 3 mps 745 mmHg 49%
    21:00 +28°C° 0 mm 3 mps 745 mmHg 57%
    22:00 +28°C° 0.1 mm 2 mps 745 mmHg 57%
    23:00 +27°C° 0.1 mm 2 mps 745 mmHg 58%

    Tomorrow, 16 July, Monday

    Time Temperature Precipitation Wind Pressure Humidity
    00:00 +27°C° 0.1 mm 2 mps 744 mmHg 58%
    01:00 +26°C° 0.2 mm 2 mps 744 mmHg 59%
    02:00 +26°C° 0.2 mm 2 mps 744 mmHg 61%
    03:00 +25°C° 0.2 mm 2 mps 744 mmHg 62%
    04:00 +25°C° 1 mm 3 mps 744 mmHg 63%
    05:00 +25°C° 1 mm 3 mps 744 mmHg 64%
    06:00 +25°C° 1 mm 4 mps 744 mmHg 64%
    07:00 +26°C° 0.5 mm 5 mps 744 mmHg 60%
    08:00 +27°C° 0.5 mm 5 mps 744 mmHg 55%
    09:00 +29°C° 0.5 mm 6 mps 745 mmHg 50%
    10:00 +30°C° 0 mm 6 mps 745 mmHg 44%
    11:00 +33°C° 0 mm 6 mps 745 mmHg 38%
    12:00 +34°C° 0 mm 6 mps 745 mmHg 32%
    13:00 +35°C° 0 mm 6 mps 745 mmHg 31%
    14:00 +35°C° 0 mm 6 mps 746 mmHg 30%
    15:00 +35°C° 0 mm 6 mps 746 mmHg 30%
    16:00 +34°C° 0 mm 6 mps 746 mmHg 33%
    17:00 +33°C° 0 mm 6 mps 746 mmHg 35%
    18:00 +32°C° 0 mm 6 mps 746 mmHg 38%
    19:00 +30°C° 0.1 mm 6 mps 747 mmHg 43%
    20:00 +28°C° 0.1 mm 5 mps 748 mmHg 48%
    21:00 +27°C° 0.1 mm 5 mps 748 mmHg 53%
    22:00 +26°C° 0 mm 4 mps 748 mmHg 55%
    23:00 +25°C° 0 mm 4 mps 749 mmHg 58%

    Day after tomorrow, 17 July, Tuesday

    Time Temperature Precipitation Wind Pressure Humidity
    00:00 +24°C° 0 mm 3 mps 749 mmHg 61%
    01:00 +24°C° 0 mm 3 mps 748 mmHg 63%
    02:00 +22°C° 0 mm 3 mps 748 mmHg 64%
    03:00 +22°C° 0 mm 3 mps 748 mmHg 66%
    04:00 +23°C° 0 mm 2 mps 748 mmHg 66%
    05:00 +23°C° 0 mm 2 mps 748 mmHg 65%
    06:00 +23°C° 0 mm 2 mps 748 mmHg 65%
    07:00 +25°C° 0 mm 2 mps 748 mmHg 59%
    08:00 +27°C° 0 mm 2 mps 748 mmHg 54%
    09:00 +28°C° 0 mm 2 mps 749 mmHg 49%
    10:00 +30°C° 0 mm 2 mps 748 mmHg 44%
    11:00 +31°C° 0 mm 2 mps 748 mmHg 39%
    12:00 +34°C° 0 mm 2 mps 748 mmHg 34%
    13:00 +35°C° 0 mm 2 mps 748 mmHg 32%
    14:00 +35°C° 0 mm 3 mps 747 mmHg 31%
    15:00 +36°C° 0 mm 3 mps 747 mmHg 29%
    16:00 +35°C° 0 mm 3 mps 747 mmHg 32%
    17:00 +35°C° 0 mm 3 mps 746 mmHg 35%
    18:00 +34°C° 0 mm 3 mps 746 mmHg 37%
    19:00 +31°C° 0 mm 3 mps 746 mmHg 45%
    20:00 +29°C° 0 mm 3 mps 747 mmHg 53%
    21:00 +27°C° 0 mm 3 mps 747 mmHg 62%
    22:00 +27°C° 0 mm 3 mps 747 mmHg 64%
    23:00 +26°C° 0 mm 3 mps 747 mmHg 67%

    18 July, Wednesday

    Time Temperature Precipitation Wind Pressure Humidity
    00:00 +26°C° 0 mm 2 mps 747 mmHg 70%
    01:00 +25°C° 0 mm 2 mps 747 mmHg 71%
    02:00 +25°C° 0 mm 2 mps 747 mmHg 72%
    03:00 +24°C° 0 mm 2 mps 746 mmHg 73%
    04:00 +25°C° 0 mm 2 mps 746 mmHg 71%
    05:00 +25°C° 0 mm 3 mps 746 mmHg 69%
    06:00 +25°C° 0 mm 3 mps 746 mmHg 67%
    07:00 +27°C° 0 mm 3 mps 746 mmHg 58%
    08:00 +30°C° 0 mm 3 mps 746 mmHg 49%
    09:00 +33°C° 0 mm 3 mps 746 mmHg 39%
    10:00 +34°C° 0 mm 4 mps 746 mmHg 36%
    11:00 +35°C° 0 mm 4 mps 746 mmHg 32%
    12:00 +37°C° 0 mm 5 mps 745 mmHg 28%
    13:00 +37°C° 0 mm 5 mps 745 mmHg 29%
    14:00 +38°C° 0 mm 6 mps 745 mmHg 30%
    15:00 +38°C° 0 mm 6 mps 744 mmHg 30%
    16:00 +35°C° 0 mm 6 mps 744 mmHg 34%
    17:00 +34°C° 0 mm 6 mps 744 mmHg 38%
    18:00 +33°C° 0 mm 6 mps 744 mmHg 42%
    19:00 +30°C° 0 mm 5 mps 744 mmHg 46%
    20:00 +29°C° 0 mm 4 mps 745 mmHg 50%
    21:00 +28°C° 0 mm 4 mps 745 mmHg 53%
    22:00 +27°C° 0 mm 4 mps 745 mmHg 56%
    23:00 +27°C° 0 mm 3 mps 745 mmHg 59%

    19 July, Thursday

    Time Temperature Precipitation Wind Pressure Humidity
    00:00 +26°C° 0 mm 3 mps 745 mmHg 62%
    01:00 +25°C° 0 mm 3 mps 745 mmHg 63%
    02:00 +25°C° 0 mm 3 mps 745 mmHg 64%
    03:00 +24°C° 0 mm 2 mps 744 mmHg 66%
    04:00 +25°C° 0 mm 2 mps 744 mmHg 65%
    05:00 +25°C° 0 mm 1 mps 745 mmHg 64%
    06:00 +25°C° 0 mm 1 mps 745 mmHg 63%
    07:00 +27°C° 0 mm 1 mps 745 mmHg 57%
    08:00 +29°C° 0 mm 1 mps 745 mmHg 50%
    09:00 +31°C° 0 mm 2 mps 745 mmHg 44%
    10:00 +34°C° 0 mm 2 mps 745 mmHg 39%
    11:00 +35°C° 0 mm 2 mps 745 mmHg 34%
    12:00 +37°C° 0 mm 3 mps 744 mmHg 29%
    13:00 +37°C° 0 mm 3 mps 744 mmHg 28%
    14:00 +38°C° 0 mm 3 mps 744 mmHg 26%
    15:00 +38°C° 0 mm 3 mps 744 mmHg 24%
    16:00 +37°C° 0 mm 3 mps 744 mmHg 28%
    17:00 +36°C° 0 mm 4 mps 744 mmHg 31%
    18:00 +36°C° 0 mm 4 mps 744 mmHg 34%
    19:00 +34°C° 0 mm 3 mps 744 mmHg 42%
    20:00 +31°C° 0 mm 3 mps 745 mmHg 49%
    21:00 +29°C° 0 mm 2 mps 745 mmHg 57%
    22:00 +28°C° 0 mm 2 mps 745 mmHg 60%
    23:00 +27°C° 0 mm 2 mps 745 mmHg 62%

    20 July, Friday

    Time Temperature Precipitation Wind Pressure Humidity
    00:00 +26°C° 0 mm 2 mps 745 mmHg 65%
    01:00 +26°C° 0.2 mm 2 mps 745 mmHg 66%
    02:00 +25°C° 0.2 mm 2 mps 745 mmHg 68%
    03:00 +24°C° 0.2 mm 2 mps 745 mmHg 70%
    04:00 +24°C° 0.4 mm 2 mps 745 mmHg 69%
    05:00 +24°C° 0.4 mm 2 mps 745 mmHg 69%
    06:00 +24°C° 0.4 mm 2 mps 745 mmHg 69%
    07:00 +26°C° 0.1 mm 2 mps 745 mmHg 64%
    08:00 +27°C° 0.1 mm 3 mps 745 mmHg 60%
    09:00 +29°C° 0.1 mm 3 mps 745 mmHg 55%
    10:00 +30°C° 0.3 mm 3 mps 745 mmHg 52%
    11:00 +31°C° 0.3 mm 3 mps 745 mmHg 48%
    12:00 +33°C° 0.3 mm 3 mps 745 mmHg 45%
    13:00 +34°C° 0.2 mm 3 mps 745 mmHg 41%
    14:00 +34°C° 0.2 mm 3 mps 744 mmHg 37%
    15:00 +35°C° 0.2 mm 3 mps 744 mmHg 33%
    16:00 +35°C° 0.2 mm 3 mps 744 mmHg 34%
    17:00 +34°C° 0.2 mm 3 mps 744 mmHg 36%
    18:00 +33°C° 0.2 mm 3 mps 744 mmHg 38%
    19:00 +31°C° 0.4 mm 3 mps 745 mmHg 43%
    20:00 +29°C° 0.4 mm 4 mps 745 mmHg 48%
    21:00 +27°C° 0.4 mm 4 mps 746 mmHg 53%
    22:00 +27°C° 0.5 mm 4 mps 746 mmHg 55%
    23:00 +26°C° 0.5 mm 4 mps 746 mmHg 57%
    Show more